Other Public Products
Issued by NWS Grand Forks, ND

Home | Current Version | Previous Version | Graphics & Text | Print | Product List | Glossary On
Versions: 1 2 3 4 5 6 7 8 9 10 11 12 13 14 15 16 17 18 19 20 21 22 23 24 25 26 27 28 29 30 31 32 33 34 35 36 37 38 39 40 41 42 43 44 45 46 47 48 49 50
919
FPUS83 KFGF 210231
OPUFGF
PRAIRIE TO PINES WEATHER ROUNDUP
NATIONAL WEATHER SERVICE EASTERN NORTH DAKOTA/GRAND FORKS ND
800 PM CST SAT JAN 20 2018

 **SATELLITE DATA USED TO AUGMENT SKY COVER AT AUTOMATED STATIONS**
 *****  WEATHER ACROSS EASTERN NORTH DAKOTA  *****

CITY           SKY/WX    TMP DP  RH WIND       PRES   REMARKS
GRAND FORKS    FAIR      23  22  96 W3        29.88R
GRND FORKS AFB FAIR      28  23  83 NW10      29.88R WCI  18
GRND FORKS NWS NOT AVBL
BUXTON           N/A     30  29  98 S6          N/A  WCI  24
DEVILS LAKE    FAIR      23  20  88 SW5       29.89R WCI  17
FARGO          FAIR      32  28  85 SW8       29.91R WCI  25
WAHPETON ARPT  FAIR      32  28  86 CALM      29.92S
$$

 *****  WEATHER ACROSS CENTRAL AND WESTERN NORTH DAKOTA  *****

CITY           SKY/WX    TMP DP  RH WIND       PRES   REMARKS
JAMESTOWN      FAIR      30  26  85 SW7       29.89R WCI  23
BISMARCK       FAIR      31  25  78 W6        29.93R
MINOT          FAIR      29  21  72 W9        29.89R WCI  20
MINOT AFB      FAIR      26  20  80 W9        29.88R WCI  16
GARRISON         N/A     29  21  72 W12       29.90R WCI  19
WILLISTON      FAIR      23  17  78 SW8       29.92R WCI  14
DICKINSON      FAIR      27  21  78 W10       29.90S WCI  17
HETTINGER      FAIR      30  22  72 NW8       29.94R WCI  22
$$

 *****  OTHER OBSERVATIONS NORTHEAST NORTH DAKOTA  *****

CITY           SKY/WX    TMP DP  RH WIND       PRES   REMARKS
WALHALLA       FAIR      30  28  93 W8        29.86R WCI  23
LANGDON        FAIR      18  19 100 W10       29.86R WCI   6
CAVALIER         N/A     30  25  80 W10       29.86R WCI  21
GRAFTON        FAIR      30  27  86 W10       29.89R WCI  21
CANDO          FAIR      19  19 100 W8        29.90R WCI   9
FORT TOTTEN      N/A     29  24  82 CALM      29.95
ROLLA          FAIR      28  25  86 W12       29.86R WCI  18
RUGBY          FAIR      19  18  93 SW12      29.89R WCI   7
 ***** THE ABOVE OBSERVATIONS ARE NON NWS ARE NOT QUALITY
        CONTROLLED AND MAY MIS-REPORT RAIN FOR SNOW...
$$

 *****  OTHER OBSERVATIONS SOUTHEAST NORTH DAKOTA *****

CITY           SKY/WX    TMP DP  RH WIND       PRES   REMARKS
COOPERSTOWN    FAIR      27  25  93 W3        29.89R
VALLEY CITY    FAIR      30  30 100 W9        29.91S WCI  22
OAKES            N/A     32  28  86 CALM      29.93R
GWINNER          N/A     36  28  75 W7        29.92R
SHEYENNE NWR     N/A     35  31  84 W5        29.95S
BUFFALO          N/A     31  28  87 E8          N/A  WCI  23
WYNDMERE       NOT AVBL
 ***** THE ABOVE OBSERVATIONS ARE NON NWS ARE NOT QUALITY
       CONTROLLED AND MAY MIS-REPORT RAIN FOR SNOW...
$$

  *****  WEATHER ACROSS NORTHERN MINNESOTA  *****

CITY           SKY/WX    TMP DP  RH WIND       PRES   REMARKS
FLAG ISLAND    FAIR      27  25  93 SW3       29.83R
WARROAD        FAIR      27  23  86 SW7       29.85R WCI  19
ROSEAU         FAIR      25  19  80 SW7       29.85S WCI  17
HALLOCK        FAIR      18  16  93 S6        29.86S WCI   9
THF RVR FALLS  FAIR      21  19  92 S6        29.88R WCI  13
HALSTAD        NOT AVBL
FOSSTON        FAIR      19  19 100 S6        29.88F WCI  11
BAUDETTE       FAIR      26  23  88 SW6       29.83S WCI  19
WASKISH        FAIR      28  25  86 SW7       29.86F WCI  21
CROOKSTON      FAIR      21  21 100 SW6       29.90R WCI  14
$$
  *****  WEATHER ACROSS CENTRAL AND WEST MINNESOTA  *****

CITY           SKY/WX    TMP DP  RH WIND       PRES   REMARKS
BEMIDJI        FAIR      22  21  96 CALM      29.87F
PARK RAPIDS    FOG       19  16  88 SW3       29.88R VSB 1/2
WADENA         FAIR      30  27  86 W6        29.90S WCI  24
DETROIT LAKES  FAIR      27  27 100 SW3       29.91S FOG
MOORHEAD       FAIR      30  28  93 SW5       29.92S
FERGUS FALLS   FAIR      32  28  86 CALM      29.90S
ELBOW LAKE     FAIR      29  28  96 CALM      29.91S
MORRIS MN      FAIR      34  30  86 S3        29.91S
STAPLES        FAIR      27  25  93 W6        29.89F WCI  20
WHEATON        FAIR      37  28  70 CALM      29.93F
$$
  *****  WEATHER ELSEWHERE ACROSS MINNESOTA  *****

CITY           SKY/WX    TMP DP  RH WIND       PRES   REMARKS
DULUTH         FAIR      31  25  78 W7        29.86R WCI  24
INTRNTL FALLS  FAIR      27  23  85 W6        29.85R WCI  20
ELY            FAIR      21  21 100 CALM      29.86R
CLOQUET        FAIR      34  25  69 W3        29.87S
BRAINERD       FAIR      30  24  78 CALM      29.89S
HIBBING        FAIR      18  17  96 CALM      29.87S FOG
ALEXANDRIA     FAIR      32  29  88 W3        29.90F
SAINT CLOUD    FAIR      31  29  92 CALM      29.90S
MINNEAPOLIS    MOCLDY    38  32  79 SW3       29.93S
$$

  *****  WEATHER ACROSS SOUTH DAKOTA  *****

CITY           SKY/WX    TMP DP  RH WIND       PRES   REMARKS
SIOUX FALLS    CLOUDY    33  31  92 N3        29.92R
BROOKINGS      MOCLDY    37  29  72 N5        29.92R
WATERTOWN      MOCLDY    35  30  82 CALM      29.92R
HURON          CLOUDY    36  32  85 W3        29.94R
SISSETON         N/A     36  30  79 CALM      29.90S
ABERDEEN       CLOUDY    37  30  75 W5        29.95R
MITCHELL       FAIR      38  32  79 NW5       29.95R
PIERRE         CLOUDY    37  36  96 NW10      29.96R
MOBRIDGE       MOCLDY    36  27  69 NW5       29.92R
RAPID CITY     FLURRIES  32  27  81 VRB3      29.95S
$$

  *****  SOME WEATHER IN NEARBY STATES *****

CITY           SKY/WX    TMP DP  RH WIND       PRES   REMARKS
GLASGOW MT     FAIR      21  17  84 SW5       29.91R WCI  15
GREAT FALLS MT FAIR      27  19  72 SW12      29.91S WCI  17
CHEYENNE WY    SNOW      27  27 100 NE10      29.81S VSB 1/4 WCI  17
SCOTTSBLUFF NE CLOUDY    34  30  85 NE7       29.90R
OMAHA NE       CLOUDY    37  33  85 NW5       29.87R
DES MOINES IA  CLOUDY    41  37  86 E5        29.90S
DAVENPORT IA   CLOUDY    37  34  89 SE5       29.97S FOG
CHICAGO IL     CLOUDY    41  36  82 SW8       29.99R
EAU CLAIRE WI  FAIR      30  28  92 CALM      29.92R FOG
LA CROSSE WI   FAIR      30  28  92 CALM      29.93S
$$

  *****  SOME NATIONAL WEATHER *****

CITY           SKY/WX    TMP DP  RH WIND       PRES   REMARKS
LA GUARDIA NY  FAIR      47  27  45 W14G22    30.00S
RALEIGH NC     FAIR      42  33  70 SW7       30.18R
ATLANTA GA     FAIR      50  38  63 W3        30.25R
NEW ORLEANS LA FAIR      58  52  80 SE9       30.21R
OKLAHOMA CITY  FAIR      57  40  52 S17       29.79S
ALBUQUERQUE NM MOCLDY    53  17  24 S10       29.79S
SALT LAKE CITY CLOUDY    34  26  72 NW14      29.92S WCI  25
LOS ANGELES CA FAIR      58  24  27 N12G22    30.08R
BOISE ID       MOCLDY    36  26  67 N6        30.09R
SEATTLE WA     CLOUDY    46  39  76 S13       30.00F
$$

*** WEATHER ACROSS MANITOBA...SASKATCHEWAN AND ONTARIO ***
                ***ONTARIO***

CITY           SKY/WX    TMP DP  RH WIND       PRES   REMARKS
GERALDTON      FLURRIES   9   3  78 E3        29.91R
THUNDER BAY    MOCLDY    23  21  93 NE6       29.91R WCI  16
SIOUX LOOKOUT  LGT SNOW  19  16  86 E3        29.83S
TORONTO        PTCLDY    34  27  75 W7        30.00R
BIG TROUT LK   FLURRIES  -2  -6  84 NE3       29.99S
PICKLE LAKE    FLURRIES   1  -2  85 NE5       29.88S WCI  -8
DRYDEN         CLOUDY    28  25  86 S5        29.81S WCI  23
KENORA         MOCLDY    27  25  93 S3        29.80S
$$
                *** MANITOBA***

CITY           SKY/WX    TMP DP  RH WIND       PRES   REMARKS
BRANDON        MOCLDY    21  19  93 NW9       29.85R WCI  11
DAUPHIN        CLOUDY    18  16  93 NE8       29.90R WCI   7
ISLAND LAKE    CLEAR     -6 -11  77 VRB2      29.99R
PILOT MOUND      N/A     19  18  93 SW5         N/A  WCI  13
THE PAS        LGT SNOW   3  -2  78 E5        29.96R WCI  -6
THOMPSON       FLURRIES   1  -2  85 NE8       30.04R WCI -12
WINNIPEG       MOCLDY    19  19 100 N8        29.84R WCI   9
LYNN LAKE      LGT SNOW   1  -2  85 E10       29.97R WCI -14
CHURCHILL      FLURRIES  -6 -11  77 N9        30.22R WCI -22
$$
                ***SASKATCHEWAN***

CITY           SKY/WX    TMP DP  RH WIND       PRES   REMARKS
ESTEVAN        CLEAR     18  16  93 SW9       29.88R WCI   6
KINDERSLEY     PTCLDY    19  18  93 NE7       29.82S WCI  10
LLOYDMINSTER   CLOUDY    23  21  93 W2        29.81S
PRINCE ALBERT  CLOUDY    18  14  86 SE5       29.89R WCI  11
REGINA         CLEAR     23  19  86 NW6       29.87R WCI  16
YORKTON        CLOUDY    28  27  93 NW9       29.85R WCI  20
N. BATTLEFORD  CLOUDY    25  21  86 SW5       29.86R WC



USA.gov is the U.S. government's official web portal to all federal, state and local government web resources and services.